SL-16 DEB, 22812

Orbit data source: Space-Track

SL-16 DEB, 22812 is space debris in LEO originally from a launch on Fri, 25 Dec 1992 UTC launched from the Tyuratam Missile And Space Complex (TTMTR). Debris objects in space refer to the collection of defunct objects orbiting the Earth. Examples of debris include non-operational satellites, rocket bodies, and fragments generated from explosions, collisions, or faulty payload assembly.

Loading next visibility...
Identifier
22812, 1992-093JB
Orbit
LEO
Country
Flag of CISCIS
Related business
Manufacturer
Unknown
Mission
Spacecraft
Bus & Motor
Unknown
Mass
Unknown
Launch date (UTC)
1992-12-25 (33 years ago)
Launch vehicle
Unknown
Launch site
Tyuratam Missile And Space Complex (TTMTR)
Object type
Payload
Rocket body
Debris
Shape & HBR
Unknown shape, 0.1 m
Radar Cross Section
Small (<0.1 m²)

Expand to show TLE details & history
Last TLE update: 23 hours ago

TLE from 23 hours ago
0 SL-16 DEB
1 22812U 92093JB  26132.48781148  .00001597  00000-0  88949-3 0  9996
2 22812  70.6852  15.9834 0125060  96.3016 265.2362 14.08626781677980
Epoch: 2026-05-12T11:42Z
TLE epoch observation values (Epoch: 2026-05-12T11:42:26.911Z)
Latitude
-0.00006°
Longitude
-29.89023°
Altitude
875.094 km
Speed
7.411 km/s
True Right ascension
01h 03m 56s
True Declination
0° 00' 00"
Sunlit
Object was in daylight at epoch
Visualization orbit readout
Latitude
Unknown
Longitude
Unknown
Altitude
Unknown
Speed
Unknown
Apparent Right ascension
Unknown
Apparent Declination
Unknown
Sunlit
N/A
Visualization observer readout
Local Sidereal Time
19:34:28
Azimuth
Unknown
Elevation
Unknown
Doppler factor
Unknown
Orbital elements
Apogee altitude
952.582 km
Perigee altitude
771.491 km
Semi-major axis
7,240.173 km
Eccentricity
0.01251
Inclination
70.6852°
RAAN
15.9834°
Arg. of periapsis
96.3016°
True anomaly
263.81007°
Mean anomaly
265.2362°
Eccentric anomaly
264.52293°
Mean motion
3.52306 °/min
Orbital period
102.18 mins
BSTAR
0.00088949
Loading maneuver chart data...
Computing Atmospheric mass density...
Loading historical data...
Loading historical data...
Loading historical data...
Loading historical data...
Loading historical data...
Loading historical data...
Loading historical data...

Documentation

Showing up to 5 results
|